Weather Roundup
Issued by NWS Chicago, IL

Home | Current Version | Previous Version | Text Only | Print | Product List | Glossary On
Versions: 1 2 3 4 5 6 7 8 9 10 11 12 13 14 15 16 17 18 19 20 21 22 23 24 25 26 27 28 29 30 31 32 33 34 35 36 37 38 39 40 41 42 43 44 45 46 47 48 49 50
000
NZUS59 KLOT 261509
HRRLOT

CHICAGO AREA WEATHER ROUNDUP
NATIONAL WEATHER SERVICE CHICAGO/ROMEOVILLE IL
1000 AM CDT MON JUN 26 2017

NOTE: "FAIR" INDICATES FEW OR NO CLOUDS BELOW 12,000 FEET WITH NO
SIGNIFICANT WEATHER AND/OR OBSTRUCTIONS TO VISIBILITY.

* THESE STATIONS ARE NOT UNDER NWS QUALITY CONTROL. THEY ALSO MAY NOT
  REPORT WEATHER SUCH AS PRECIPITATION OR FOG.

ILZ005-006-012>014-019>023-261600-
NORTHEAST ILLINOIS

CITY           SKY/WX    TMP DP  RH WIND       PRES   REMARKS
OHARE          MOSUNNY   67  44  43 W14       30.09F
MIDWAY         MOSUNNY   69  44  40 W15G22    30.10F
AURORA         NOT AVBL
LANSING*       SUNNY     68  43  39 W10G17    30.12S
JOLIET*        SUNNY     70  46  41 W9G22     30.13S
WAUKEGAN       MOSUNNY   64  50  60 W8        30.08F
DUPAGE AIRPORT MOSUNNY   66  48  52 NW12      30.11S
WHEELING       MOSUNNY   65  48  54 W13       30.10F
MORRIS*        SUNNY     69  45  41 W17       30.12F
LEWIS AIRPORT* MOSUNNY   68  42  39 W15       30.12F
NORTHERLY ISL    N/A     67  41  38 SW9         N/A
$$

WIZ051-052-058>065-066-070>072-261600-
SOUTHEAST WISCONSIN

CITY           SKY/WX    TMP DP  RH WIND       PRES   REMARKS
MILWAUKEE      MOSUNNY   65  46  50 NW12G22   30.07F
KENOSHA*       SUNNY     65  49  56 W13       30.08F
RACINE*        SUNNY     64  47  53 VRB7      30.09F
WAUKESHA       MOSUNNY   57  46  67 W14       30.10F
WEST BEND      MOSUNNY   59  45  58 W13G23    30.06F
$$

INZ001>003-010>013-019-020-261600-
NORTHWEST INDIANA

CITY           SKY/WX    TMP DP  RH WIND       PRES   REMARKS
GARY*          MOSUNNY   68  43  40 W12       30.12S
MICHIGAN CITY* NOT AVBL
RENSSELAER*    NOT AVBL
VALPARAISO     SUNNY     71  47  42 W14G21    30.12S
$$

LMZ740>746-261600-
SOUTHERN LAKE MICHIGAN

STATION/POSITION TIME  SKY/WX   TEMP WIND        PRES    VSBY
                                AIR  DIR/SP/G
                 (UTC)          (F)  (DEG/KT/KT) (MB)    (MI)
HARRISON CRIB    1440            66  290/ 16/ 18   N/A
BURNHAM HARBOR   1500            66                N/A
CALUMET HARBOR   1448            68  240/  5/ 11 1018.8F
BURNS HARBOR     1500            65  260/ 10/ 14 1020.0
MICHIGAN CITY    1440            62  250/ 13/ 14   N/A
$$

ABBREVIATIONS USED IN REMARKS
   TC - TEMPERATURE IN CELSIUS
  WCI - WIND CHILL INDEX
   HX - HEAT INDEX
  VSB - VISIBILITY
$$




USA.gov is the U.S. government's official web portal to all federal, state and local government web resources and services.